Total_Precipitation_Accumulation
0.02 0.02 0.03 0.03 0.02 0.01 0.01 0.01 0.01 0.01 0.01 0.01 0.01 0.01 0.01 0.01 0.01 0.00 0.00 0.00 0.00 0.00 0.00 0.00 0.00 0.00 0.00 0.00 0.00 0.00 0.00 0.00 0.00 0.03 0.10 0.24 0.18 0.09 0.11 0.18 0.29 0.39 0.68 0.95 0.89
0.03 0.03 0.03 0.03 0.02 0.01 0.01 0.01 0.01 0.01 0.01 0.01 0.01 0.01 0.01 0.01 0.00 0.00 0.00 0.00 0.00 0.00 0.00 0.00 0.00 0.00 0.00 0.00 0.00 0.00 0.00 0.00 0.01 0.02 0.10 0.16 0.21 0.09 0.13 0.42 0.67 0.42 0.82 1.15 1.09
0.02 0.03 0.03 0.03 0.02 0.01 0.01 0.01 0.01 0.01 0.01 0.01 0.01 0.01 0.01 0.00 0.00 0.00 0.00 0.00 0.00 0.00 0.00 0.00 0.00 0.00 0.00 0.00 0.00 0.00 0.00 0.00 0.02 0.10 0.02 0.05 0.08 0.06 0.12 0.57 0.92 0.94 0.74 0.83 0.72
0.02 0.02 0.02 0.03 0.02 0.02 0.01 0.01 0.01 0.01 0.01 0.01 0.01 0.01 0.01 0.00 0.00 0.00 0.00 0.00 0.00 0.00 0.00 0.00 0.00 0.00 0.00 0.00 0.00 0.00 0.00 0.00 0.01 0.05 0.01 0.04 0.06 0.04 0.21 0.45 0.36 0.38 0.38 0.31 0.40
0.02 0.02 0.01 0.02 0.02 0.02 0.01 0.01 0.01 0.01 0.01 0.01 0.01 0.02 0.00 0.00 0.00 0.00 0.00 0.00 0.00 0.00 0.00 0.00 0.00 0.00 0.00 0.00 0.00 0.00 0.00 0.00 0.00 0.00 0.03 0.01 0.02 0.04 0.04 0.10 0.04 0.11 0.19 0.28 0.41
0.02 0.02 0.01 0.02 0.02 0.02 0.01 0.01 0.01 0.01 0.01 0.01 0.01 0.02 0.00 0.00 0.00 0.00 0.00 0.00 0.00 0.00 0.00 0.00 0.00 0.00 0.00 0.00 0.00 0.00 0.00 0.00 0.00 0.00 0.01 0.02 0.02 0.06 0.21 0.06 0.02 0.06 0.22 0.38 0.35
0.03 0.02 0.02 0.02 0.02 0.01 0.01 0.01 0.01 0.01 0.01 0.01 0.01 0.02 0.00 0.00 0.00 0.00 0.00 0.00 0.00 0.00 0.00 0.00 0.00 0.00 0.00 0.00 0.00 0.00 0.00 0.00 0.00 0.00 0.02 0.07 0.12 0.13 0.13 0.01 0.01 0.03 0.10 0.11 0.17
0.02 0.02 0.02 0.01 0.01 0.01 0.01 0.01 0.01 0.01 0.01 0.01 0.01 0.01 0.00 0.00 0.00 0.00 0.00 0.00 0.00 0.00 0.00 0.00 0.00 0.00 0.00 0.00 0.00 0.00 0.00 0.01 0.01 0.00 0.01 0.12 0.46 0.07 0.08 0.08 0.04 0.03 0.07 0.06 0.02
0.02 0.02 0.02 0.01 0.02 0.02 0.01 0.01 0.01 0.01 0.01 0.01 0.00 0.00 0.00 0.00 0.00 0.00 0.00 0.00 0.00 0.00 0.00 0.00 0.00 0.00 0.00 0.00 0.00 0.00 0.00 0.00 0.01 0.01 0.01 0.10 0.45 0.09 0.08 0.22 0.09 0.04 0.01 0.00 0.00
0.02 0.02 0.02 0.03 0.03 0.02 0.01 0.01 0.01 0.01 0.01 0.00 0.00 0.00 0.00 0.00 0.00 0.00 0.00 0.00 0.00 0.00 0.00 0.00 0.00 0.00 0.00 0.00 0.01 0.00 0.00 0.00 0.00 0.00 0.00 0.01 0.12 0.23 0.06 0.09 0.30 0.05 0.02 0.00 0.00
0.02 0.02 0.02 0.03 0.04 0.02 0.00 0.00 0.00 0.00 0.00 0.00 0.00 0.00 0.00 0.00 0.00 0.00 0.00 0.00 0.00 0.01 0.00 0.00 0.00 0.00 0.00 0.00 0.00 0.00 0.00 0.00 0.00 0.00 0.00 0.00 0.02 0.10 0.15 0.04 0.06 0.04 0.14 0.05 0.01
0.03 0.02 0.02 0.04 0.05 0.02 0.01 0.00 0.00 0.00 0.00 0.00 0.00 0.00 0.00 0.00 0.00 0.00 0.00 0.00 0.01 0.05 0.03 0.00 0.00 0.00 0.00 0.00 0.00 0.00 0.00 0.00 0.00 0.00 0.00 0.00 0.00 0.02 0.07 0.01 0.01 0.01 0.14 0.03 0.01
0.03 0.02 0.03 0.05 0.04 0.01 0.00 0.00 0.00 0.00 0.01 0.00 0.00 0.00 0.00 0.00 0.00 0.00 0.00 0.00 0.00 0.02 0.07 0.02 0.00 0.00 0.00 0.00 0.00 0.00 0.00 0.00 0.00 0.00 0.00 0.00 0.00 0.02 0.02 0.02 0.06 0.01 0.00 0.00 0.00
0.04 0.03 0.04 0.06 0.01 0.00 0.00 0.00 0.00 0.00 0.01 0.00 0.00 0.00 0.00 0.00 0.00 0.00 0.00 0.00 0.00 0.01 0.06 0.08 0.00 0.00 0.00 0.00 0.00 0.00 0.00 0.00 0.00 0.00 0.00 0.00 0.01 0.09 0.03 0.01 0.04 0.02 0.00 0.01 0.00
0.05 0.05 0.07 0.06 0.02 0.01 0.00 0.00 0.00 0.02 0.01 0.00 0.00 0.00 0.00 0.00 0.00 0.00 0.00 0.00 0.00 0.00 0.05 0.06 0.03 0.02 0.00 0.00 0.00 0.01 0.00 0.00 0.00 0.00 0.01 0.01 0.00 0.08 0.01 0.01 0.01 0.01 0.00 0.01 0.01
0.08 0.09 0.14 0.08 0.04 0.01 0.01 0.02 0.09 0.05 0.00 0.00 0.00 0.00 0.00 0.00 0.00 0.00 0.00 0.00 0.00 0.00 0.00 0.00 0.01 0.01 0.01 0.00 0.01 0.00 0.01 0.00 0.00 0.00 0.02 0.02 0.02 0.04 0.01 0.00 0.02 0.02 0.01 0.01 0.02
0.10 0.13 0.16 0.06 0.03 0.01 0.02 0.18 0.22 0.03 0.00 0.00 0.00 0.00 0.00 0.00 0.00 0.00 0.00 0.00 0.00 0.00 0.00 0.00 0.00 0.00 0.00 0.00 0.01 0.02 0.07 0.05 0.06 0.02 0.01 0.00 0.01 0.02 0.02 0.05 0.12 0.10 0.01 0.02 0.00
0.15 0.21 0.15 0.07 0.03 0.06 0.15 0.34 0.12 0.00 0.00 0.00 0.00 0.00 0.00 0.00 0.00 0.00 0.00 0.00 0.00 0.00 0.00 0.01 0.02 0.00 0.00 0.00 0.01 0.01 0.05 0.08 0.14 0.08 0.05 0.03 0.01 0.01 0.01 0.01 0.00 0.00 0.00 0.00 0.00
0.32 0.29 0.22 0.07 0.03 0.10 0.39 0.44 0.04 0.01 0.00 0.00 0.00 0.00 0.00 0.00 0.00 0.00 0.00 0.00 0.00 0.00 0.01 0.02 0.00 0.00 0.00 0.00 0.02 0.07 0.10 0.07 0.17 0.11 0.08 0.06 0.00 0.00 0.00 0.00 0.00 0.00 0.00 0.00 0.01
0.47 0.46 0.16 0.06 0.12 0.41 0.66 0.26 0.00 0.00 0.00 0.00 0.00 0.00 0.00 0.00 0.00 0.00 0.01 0.02 0.02 0.00 0.00 0.04 0.08 0.01 0.00 0.00 0.00 0.07 0.17 0.37 0.36 0.26 0.12 0.01 0.02 0.03 0.01 0.00 0.00 0.00 0.00 0.00 0.00
1.00 0.92 0.18 0.10 0.58 0.93 0.62 0.10 0.00 0.00 0.00 0.00 0.00 0.00 0.00 0.00 0.00 0.00 0.04 0.13 0.07 0.03 0.00 0.00 0.03 0.05 0.01 0.01 0.02 0.07 0.25 0.43 0.34 0.07 0.11 0.11 0.22 0.14 0.02 0.00 0.00 0.00 0.00 0.00 0.00
1.70 1.16 0.28 0.34 0.88 0.62 0.21 0.02 0.00 0.00 0.00 0.00 0.00 0.00 0.00 0.00 0.00 0.00 0.00 0.03 0.02 0.03 0.07 0.03 0.03 0.01 0.00 0.00 0.00 0.03 0.07 0.17 0.42 0.26 0.13 0.14 0.36 0.37 0.07 0.01 0.00 0.00 0.01 0.02 0.02
2.11 1.05 0.83 0.78 1.00 0.32 0.11 0.05 0.01 0.00 0.00 0.01 0.00 0.00 0.01 0.00 0.03 0.01 0.01 0.01 0.01 0.03 0.05 0.04 0.11 0.09 0.06 0.08 0.04 0.05 0.09 0.16 0.28 0.38 0.31 0.29 0.21 0.49 0.23 0.05 0.01 0.00 0.01 0.03 0.05
2.62 1.80 1.86 1.22 0.31 0.36 0.47 0.24 0.06 0.05 0.08 0.09 0.02 0.04 0.05 0.07 0.03 0.02 0.02 0.03 0.05 0.06 0.08 0.07 0.03 0.05 0.10 0.12 0.12 0.07 0.05 0.10 0.39 0.61 0.34 0.22 0.15 0.73 0.94 0.42 0.09 0.01 0.04 0.07 0.08
3.77 1.48 0.80 0.88 0.41 0.21 0.29 0.31 0.18 0.21 0.16 0.08 0.21 0.25 0.20 0.15 0.12 0.07 0.06 0.06 0.10 0.08 0.17 0.24 0.13 0.05 0.01 0.02 0.03 0.08 0.08 0.07 0.16 0.23 0.32 0.10 0.13 0.31 0.78 0.86 0.53 0.09 0.04 0.07 0.08
3.63 0.92 0.29 0.16 0.19 0.28 0.35 0.19 0.10 0.13 0.14 0.20 0.27 0.10 0.07 0.13 0.13 0.19 0.21 0.21 0.25 0.24 0.24 0.37 0.24 0.04 0.01 0.01 0.01 0.01 0.01 0.11 0.13 0.08 0.09 0.06 0.12 0.21 0.42 0.57 0.51 0.42 0.19 0.10 0.10
2.91 0.71 0.59 0.36 0.17 0.28 0.21 0.14 0.13 0.07 0.11 0.14 0.21 0.13 0.06 0.17 0.18 0.22 0.17 0.20 0.24 0.32 0.43 0.40 0.44 0.17 0.07 0.00 0.00 0.00 0.00 0.03 0.10 0.14 0.23 0.23 0.08 0.13 0.19 0.40 0.30 0.34 0.29 0.19 0.17